Precipitable_Water
0.34 0.33 0.33 0.33 0.33 0.31 0.29 0.28 0.25 0.23 0.21 0.20 0.17 0.17 0.17 0.18 0.19 0.21 0.26 0.31 0.32 0.33 0.34 0.38 0.38 0.39 0.36 0.34 0.34 0.34 0.39 0.42 0.54 0.54 0.51 0.51 0.53 0.58 0.60 0.63 0.71 0.79 0.83 0.88 0.91 0.94 0.97 1.00 1.01 1.04 1.07 1.10 1.13 1.15 1.19 1.23 1.27 1.33 1.42 1.45 1.46 1.49 1.51 1.52 1.55 1.61 1.65 1.69 1.73 1.74 1.75 1.71 1.68 1.67 1.68 1.70 1.62 1.44 1.42 1.42 1.39 1.36 1.30 1.19 1.13 1.17 1.22
0.39 0.38 0.36 0.34 0.32 0.32 0.32 0.29 0.29 0.28 0.25 0.22 0.20 0.18 0.17 0.16 0.17 0.21 0.25 0.28 0.32 0.33 0.33 0.33 0.35 0.37 0.37 0.35 0.36 0.33 0.39 0.46 0.47 0.51 0.51 0.50 0.52 0.54 0.57 0.61 0.66 0.76 0.86 0.90 0.91 0.94 0.96 0.96 0.98 1.01 1.04 1.07 1.08 1.11 1.16 1.24 1.28 1.37 1.42 1.43 1.43 1.45 1.46 1.49 1.57 1.62 1.64 1.64 1.66 1.70 1.72 1.69 1.71 1.74 1.78 1.78 1.78 1.63 1.46 1.38 1.36 1.32 1.28 1.23 1.20 1.26 1.26
0.39 0.40 0.39 0.38 0.35 0.33 0.30 0.31 0.30 0.29 0.29 0.26 0.23 0.21 0.19 0.19 0.18 0.18 0.20 0.22 0.26 0.35 0.33 0.31 0.33 0.34 0.35 0.32 0.34 0.36 0.39 0.44 0.45 0.47 0.47 0.48 0.49 0.53 0.58 0.62 0.66 0.77 0.88 0.91 0.92 0.92 0.92 0.94 0.96 0.99 1.02 1.05 1.09 1.13 1.19 1.25 1.29 1.36 1.41 1.39 1.41 1.41 1.42 1.50 1.55 1.59 1.60 1.62 1.68 1.68 1.71 1.72 1.73 1.76 1.78 1.78 1.75 1.67 1.57 1.43 1.34 1.34 1.34 1.33 1.35 1.37 1.30
0.34 0.37 0.36 0.37 0.38 0.37 0.33 0.30 0.30 0.29 0.28 0.27 0.25 0.21 0.21 0.19 0.18 0.19 0.19 0.19 0.22 0.26 0.31 0.31 0.30 0.31 0.34 0.35 0.37 0.40 0.38 0.37 0.42 0.45 0.46 0.48 0.51 0.53 0.58 0.62 0.67 0.77 0.84 0.87 0.86 0.87 0.89 0.94 0.99 1.00 1.02 1.07 1.10 1.11 1.20 1.23 1.28 1.35 1.35 1.36 1.36 1.39 1.43 1.50 1.53 1.56 1.60 1.62 1.62 1.65 1.69 1.68 1.68 1.72 1.72 1.71 1.69 1.63 1.62 1.56 1.47 1.44 1.43 1.47 1.46 1.39 1.27
0.36 0.38 0.36 0.35 0.36 0.34 0.30 0.29 0.30 0.30 0.29 0.29 0.29 0.28 0.25 0.22 0.21 0.19 0.19 0.18 0.23 0.26 0.23 0.24 0.29 0.26 0.29 0.36 0.36 0.34 0.32 0.37 0.43 0.45 0.46 0.50 0.55 0.57 0.61 0.63 0.66 0.74 0.80 0.83 0.84 0.87 0.91 0.96 0.99 1.02 1.06 1.06 1.06 1.12 1.15 1.22 1.29 1.30 1.31 1.32 1.35 1.38 1.45 1.49 1.52 1.54 1.57 1.56 1.56 1.59 1.59 1.57 1.58 1.58 1.57 1.56 1.55 1.53 1.44 1.40 1.43 1.39 1.39 1.49 1.46 1.36 1.28
0.40 0.42 0.41 0.39 0.32 0.27 0.25 0.31 0.31 0.29 0.27 0.27 0.26 0.26 0.27 0.26 0.24 0.21 0.23 0.25 0.30 0.27 0.27 0.30 0.28 0.22 0.22 0.28 0.30 0.29 0.33 0.41 0.47 0.46 0.50 0.56 0.62 0.66 0.69 0.70 0.71 0.80 0.88 0.91 0.93 0.93 0.94 0.99 1.03 1.08 1.10 1.08 1.11 1.16 1.20 1.24 1.23 1.25 1.27 1.32 1.35 1.38 1.42 1.44 1.44 1.42 1.39 1.35 1.34 1.36 1.38 1.39 1.41 1.41 1.43 1.44 1.48 1.50 1.50 1.49 1.40 1.35 1.41 1.45 1.46 1.35 1.29
0.40 0.44 0.43 0.39 0.31 0.29 0.37 0.40 0.37 0.35 0.32 0.31 0.29 0.29 0.29 0.29 0.28 0.27 0.27 0.29 0.31 0.34 0.35 0.32 0.33 0.35 0.36 0.37 0.35 0.33 0.36 0.40 0.44 0.48 0.53 0.58 0.63 0.68 0.72 0.73 0.75 0.82 0.88 0.91 0.94 0.95 0.97 1.04 1.10 1.11 1.10 1.11 1.15 1.17 1.19 1.19 1.23 1.24 1.27 1.30 1.31 1.32 1.29 1.28 1.27 1.26 1.28 1.29 1.33 1.37 1.37 1.38 1.39 1.41 1.43 1.45 1.47 1.49 1.50 1.49 1.43 1.39 1.47 1.48 1.45 1.42 1.37
0.49 0.46 0.45 0.32 0.29 0.40 0.44 0.47 0.49 0.49 0.43 0.36 0.32 0.29 0.30 0.31 0.30 0.29 0.28 0.27 0.27 0.30 0.35 0.34 0.36 0.39 0.36 0.45 0.45 0.42 0.43 0.43 0.43 0.46 0.53 0.59 0.63 0.65 0.72 0.78 0.81 0.84 0.87 0.92 0.93 0.96 1.07 1.09 1.10 1.09 1.05 1.09 1.11 1.13 1.19 1.19 1.22 1.23 1.25 1.24 1.22 1.22 1.20 1.23 1.24 1.27 1.29 1.31 1.36 1.39 1.38 1.38 1.38 1.39 1.43 1.43 1.43 1.48 1.49 1.48 1.48 1.49 1.54 1.55 1.51 1.46 1.40
0.43 0.46 0.45 0.41 0.46 0.44 0.45 0.46 0.52 0.51 0.41 0.38 0.34 0.28 0.28 0.30 0.31 0.30 0.28 0.28 0.27 0.29 0.32 0.33 0.35 0.46 0.44 0.35 0.35 0.39 0.39 0.42 0.44 0.46 0.51 0.59 0.64 0.66 0.71 0.75 0.82 0.91 0.97 1.01 1.05 1.08 1.08 1.06 1.04 1.03 1.10 1.11 1.12 1.16 1.16 1.18 1.20 1.19 1.20 1.16 1.16 1.19 1.20 1.24 1.27 1.30 1.33 1.34 1.36 1.38 1.38 1.37 1.36 1.39 1.40 1.42 1.44 1.50 1.45 1.42 1.41 1.44 1.51 1.52 1.49 1.44 1.44
0.48 0.47 0.46 0.43 0.43 0.37 0.45 0.67 0.69 0.69 0.62 0.55 0.53 0.39 0.32 0.36 0.33 0.32 0.30 0.30 0.32 0.30 0.32 0.34 0.43 0.45 0.33 0.27 0.26 0.33 0.39 0.42 0.43 0.48 0.55 0.61 0.65 0.67 0.71 0.78 0.89 0.92 0.95 0.98 1.08 1.06 1.06 1.05 1.07 1.08 1.11 1.12 1.14 1.11 1.11 1.16 1.16 1.15 1.14 1.12 1.18 1.21 1.21 1.26 1.28 1.32 1.34 1.36 1.36 1.39 1.40 1.38 1.38 1.42 1.44 1.44 1.42 1.47 1.42 1.40 1.39 1.45 1.51 1.49 1.45 1.47 1.48
0.45 0.43 0.43 0.41 0.37 0.43 0.60 0.67 0.71 0.71 0.68 0.62 0.59 0.42 0.31 0.36 0.37 0.36 0.32 0.30 0.31 0.31 0.31 0.35 0.45 0.36 0.27 0.25 0.27 0.33 0.43 0.43 0.45 0.49 0.57 0.63 0.67 0.72 0.75 0.79 0.81 0.87 0.92 1.00 1.04 1.08 1.11 1.09 1.09 1.12 1.12 1.11 1.09 1.07 1.11 1.16 1.17 1.13 1.10 1.14 1.20 1.21 1.23 1.29 1.32 1.34 1.34 1.35 1.37 1.39 1.40 1.42 1.43 1.41 1.42 1.41 1.42 1.43 1.42 1.41 1.41 1.47 1.48 1.45 1.46 1.50 1.54
0.43 0.44 0.41 0.41 0.47 0.47 0.69 0.70 0.70 0.72 0.72 0.64 0.53 0.33 0.28 0.37 0.40 0.41 0.39 0.34 0.32 0.31 0.32 0.43 0.40 0.33 0.26 0.25 0.29 0.53 0.52 0.52 0.55 0.57 0.59 0.65 0.70 0.74 0.79 0.82 0.92 1.00 1.01 1.01 1.04 1.08 1.09 1.10 1.13 1.10 1.10 1.09 1.09 1.11 1.15 1.19 1.14 1.10 1.12 1.19 1.26 1.28 1.30 1.32 1.35 1.35 1.33 1.34 1.38 1.41 1.43 1.45 1.45 1.44 1.43 1.42 1.39 1.38 1.38 1.37 1.38 1.43 1.46 1.47 1.46 1.50 1.53
0.40 0.39 0.39 0.44 0.50 0.71 0.71 0.72 0.73 0.71 0.73 0.65 0.43 0.30 0.34 0.61 0.60 0.60 0.61 0.49 0.39 0.38 0.38 0.43 0.35 0.37 0.46 0.63 0.63 0.61 0.65 0.64 0.66 0.71 0.76 0.81 0.84 0.81 0.85 0.92 0.99 0.98 0.98 1.00 1.02 1.06 1.08 1.09 1.11 1.12 1.12 1.11 1.12 1.15 1.17 1.15 1.11 1.14 1.21 1.26 1.27 1.31 1.33 1.32 1.33 1.33 1.33 1.35 1.38 1.42 1.47 1.47 1.46 1.43 1.41 1.39 1.38 1.37 1.35 1.35 1.37 1.40 1.44 1.47 1.47 1.48 1.50
0.39 0.42 0.39 0.42 0.49 0.74 0.77 0.78 0.76 0.80 0.62 0.42 0.37 0.65 0.76 0.74 0.65 0.65 0.62 0.55 0.55 0.53 0.51 0.47 0.40 0.57 0.60 0.64 0.69 0.69 0.72 0.73 0.71 0.76 0.81 0.87 0.92 0.98 0.99 1.00 1.02 1.02 1.05 1.07 1.06 1.05 1.07 1.09 1.11 1.14 1.15 1.12 1.13 1.15 1.16 1.12 1.17 1.25 1.27 1.28 1.29 1.30 1.31 1.31 1.32 1.32 1.33 1.39 1.42 1.43 1.47 1.49 1.42 1.38 1.40 1.41 1.41 1.40 1.38 1.36 1.36 1.39 1.44 1.48 1.48 1.47 1.48
0.41 0.43 0.41 0.40 0.36 0.69 0.77 0.72 0.73 0.80 0.56 0.60 0.80 0.81 0.82 0.80 0.76 0.69 0.68 0.61 0.61 0.61 0.57 0.58 0.61 0.56 0.64 0.64 0.69 0.74 0.76 0.78 0.80 0.84 0.89 0.89 0.88 0.90 0.94 1.02 1.10 1.08 1.01 0.99 0.99 1.02 1.09 1.13 1.16 1.17 1.16 1.10 1.12 1.17 1.15 1.18 1.26 1.28 1.28 1.29 1.28 1.28 1.29 1.31 1.30 1.32 1.36 1.39 1.40 1.43 1.44 1.45 1.41 1.34 1.37 1.38 1.40 1.42 1.39 1.37 1.36 1.37 1.40 1.44 1.43 1.41 1.44
0.32 0.31 0.30 0.32 0.44 0.66 0.72 0.66 0.63 0.78 0.82 0.87 0.89 0.85 0.82 0.84 0.87 0.84 0.76 0.78 0.72 0.74 0.75 0.67 0.67 0.69 0.68 0.75 0.77 0.82 0.85 0.90 0.96 0.97 0.99 1.00 1.00 1.00 1.03 1.04 1.04 1.02 0.99 1.01 1.02 1.07 1.11 1.16 1.20 1.23 1.21 1.15 1.16 1.16 1.14 1.26 1.28 1.28 1.28 1.28 1.28 1.28 1.29 1.29 1.31 1.34 1.37 1.40 1.43 1.46 1.44 1.42 1.38 1.34 1.34 1.38 1.40 1.40 1.39 1.37 1.35 1.34 1.35 1.38 1.38 1.38 1.41
0.40 0.36 0.40 0.64 0.65 0.68 0.71 0.73 0.80 0.84 0.89 0.90 0.91 0.92 0.88 0.91 0.89 0.96 0.87 0.84 0.91 0.91 0.84 0.77 0.74 0.72 0.76 0.80 0.86 0.84 0.89 0.92 0.95 0.95 0.95 0.96 0.95 0.97 0.97 1.00 1.04 1.03 1.02 1.02 1.06 1.08 1.14 1.18 1.23 1.25 1.26 1.19 1.15 1.12 1.21 1.29 1.27 1.26 1.28 1.29 1.28 1.27 1.29 1.30 1.33 1.36 1.38 1.40 1.43 1.45 1.44 1.40 1.35 1.34 1.34 1.36 1.34 1.38 1.38 1.36 1.34 1.29 1.34 1.39 1.40 1.40 1.40
0.63 0.63 0.64 0.70 0.73 0.73 0.76 0.77 0.84 0.86 0.91 0.94 0.96 0.95 0.92 0.92 0.97 0.99 0.94 0.95 0.97 0.96 0.93 0.84 0.81 0.80 0.84 0.85 0.88 0.91 0.96 0.98 1.02 1.03 1.02 1.02 1.04 1.03 1.04 1.04 1.04 1.03 1.06 1.07 1.08 1.10 1.18 1.24 1.24 1.29 1.31 1.31 1.15 1.15 1.24 1.26 1.29 1.31 1.30 1.30 1.29 1.30 1.31 1.34 1.35 1.38 1.36 1.38 1.41 1.43 1.42 1.40 1.38 1.37 1.35 1.35 1.34 1.37 1.37 1.34 1.33 1.35 1.41 1.42 1.39 1.39 1.40
0.46 0.43 0.60 0.60 0.63 0.70 0.69 0.73 0.87 0.96 1.01 0.98 1.00 1.00 0.99 0.97 0.98 0.96 0.95 0.99 1.02 1.05 1.03 0.97 0.88 0.87 0.94 0.95 0.98 1.00 1.01 1.01 1.00 1.00 1.01 1.04 1.07 1.07 1.07 1.12 1.14 1.14 1.12 1.08 1.10 1.11 1.12 1.22 1.26 1.28 1.28 1.27 1.24 1.25 1.26 1.31 1.34 1.35 1.33 1.31 1.30 1.30 1.32 1.34 1.35 1.35 1.34 1.34 1.37 1.40 1.40 1.39 1.39 1.39 1.39 1.38 1.38 1.39 1.38 1.34 1.33 1.39 1.42 1.39 1.38 1.38 1.35
0.49 0.58 0.62 0.63 0.68 0.70 0.72 0.74 0.88 0.95 1.01 1.01 1.01 1.00 1.01 1.01 0.99 0.95 0.97 0.97 0.95 0.99 1.00 0.99 0.88 0.86 0.90 0.90 0.91 0.92 0.94 0.96 0.99 1.00 1.01 1.00 1.01 1.05 1.10 1.15 1.16 1.13 1.13 1.12 1.11 1.10 1.10 1.16 1.25 1.26 1.26 1.25 1.26 1.28 1.31 1.34 1.35 1.34 1.30 1.29 1.27 1.28 1.29 1.31 1.32 1.34 1.34 1.35 1.35 1.35 1.36 1.38 1.35 1.36 1.39 1.41 1.41 1.40 1.38 1.37 1.38 1.39 1.40 1.40 1.39 1.35 1.31
0.63 0.69 0.71 0.73 0.73 0.72 0.71 0.80 0.99 1.08 1.05 1.00 0.99 0.98 0.95 0.93 0.89 0.86 0.87 0.93 0.91 0.90 0.84 0.86 0.89 0.89 0.90 0.88 0.87 0.87 0.90 0.91 0.93 0.96 0.97 0.98 0.98 1.00 1.00 1.04 1.05 1.03 1.04 1.05 1.05 1.06 1.08 1.15 1.20 1.22 1.22 1.25 1.28 1.29 1.31 1.33 1.35 1.30 1.27 1.26 1.27 1.27 1.29 1.29 1.29 1.32 1.33 1.33 1.32 1.32 1.33 1.32 1.34 1.36 1.37 1.43 1.46 1.46 1.55 1.58 1.56 1.49 1.44 1.42 1.41 1.38 1.32
0.56 0.58 0.66 0.75 0.58 0.57 0.71 0.85 0.98 1.07 1.07 1.02 0.95 0.93 0.93 0.94 0.91 0.87 0.87 0.91 0.95 0.96 0.94 0.90 0.87 0.84 0.88 0.92 0.92 0.89 0.95 1.00 1.01 0.99 0.98 1.01 1.02 1.03 1.08 1.10 1.08 1.06 1.09 1.09 1.07 1.06 1.11 1.16 1.19 1.20 1.22 1.24 1.29 1.30 1.34 1.36 1.37 1.31 1.28 1.26 1.25 1.24 1.27 1.27 1.28 1.27 1.29 1.29 1.29 1.30 1.31 1.28 1.29 1.35 1.43 1.47 1.50 1.50 1.52 1.56 1.54 1.51 1.46 1.45 1.43 1.40 1.33
0.61 0.72 0.83 0.84 0.81 0.81 0.87 0.96 1.02 1.06 1.07 1.01 0.93 0.90 0.92 0.97 1.00 0.98 0.93 0.96 0.97 0.98 0.99 0.98 0.93 0.91 0.90 0.93 0.95 0.96 0.96 1.00 1.04 1.06 1.05 1.03 1.04 1.06 1.08 1.05 1.04 1.03 1.05 1.08 1.08 1.10 1.13 1.18 1.19 1.21 1.23 1.27 1.30 1.35 1.38 1.41 1.40 1.35 1.29 1.25 1.24 1.23 1.21 1.21 1.23 1.23 1.23 1.23 1.25 1.30 1.32 1.32 1.34 1.33 1.37 1.47 1.51 1.51 1.50 1.47 1.46 1.46 1.46 1.43 1.40 1.37 1.34
0.82 0.85 0.87 0.90 0.86 0.79 0.89 0.98 1.04 1.05 1.09 1.04 0.99 0.98 0.99 0.99 1.02 1.02 0.98 0.98 0.96 0.96 0.98 1.00 0.99 0.96 0.95 0.95 0.94 0.94 0.97 1.00 1.00 1.01 1.04 1.05 1.07 1.08 1.07 1.04 1.03 1.02 1.02 1.05 1.05 1.07 1.14 1.18 1.21 1.25 1.29 1.32 1.36 1.37 1.39 1.40 1.39 1.34 1.32 1.27 1.23 1.23 1.21 1.22 1.19 1.19 1.19 1.23 1.26 1.28 1.29 1.31 1.32 1.32 1.31 1.32 1.38 1.43 1.43 1.41 1.41 1.40 1.38 1.36 1.35 1.32 1.32
0.82 0.91 0.95 0.95 0.92 0.92 0.95 0.98 1.01 1.06 1.05 1.08 1.03 1.03 1.03 1.03 1.05 1.05 1.01 1.00 1.01 0.99 0.95 0.94 0.96 0.97 0.94 0.94 0.95 0.94 0.94 0.96 1.00 1.01 1.03 1.05 1.07 1.10 1.12 1.12 1.09 1.10 1.11 1.12 1.13 1.15 1.18 1.20 1.23 1.26 1.26 1.29 1.34 1.37 1.39 1.38 1.35 1.32 1.29 1.25 1.20 1.19 1.18 1.16 1.12 1.12 1.15 1.18 1.14 1.18 1.21 1.24 1.25 1.24 1.23 1.24 1.21 1.19 1.24 1.27 1.28 1.27 1.27 1.27 1.27 1.27 1.23
0.91 0.93 0.97 0.98 0.96 0.94 0.96 0.96 0.95 0.98 0.99 1.04 1.05 1.07 1.07 1.09 1.08 1.07 1.03 1.02 1.03 1.06 1.03 1.01 0.98 0.97 0.96 0.93 0.94 0.95 0.94 0.97 0.99 0.99 0.98 0.98 1.03 1.07 1.09 1.12 1.18 1.19 1.18 1.17 1.18 1.21 1.21 1.22 1.23 1.24 1.23 1.28 1.32 1.34 1.35 1.33 1.32 1.29 1.25 1.21 1.18 1.15 1.13 1.13 1.09 1.06 1.07 1.07 1.09 1.13 1.18 1.22 1.21 1.18 1.16 1.16 1.13 1.10 1.08 1.09 1.14 1.18 1.22 1.22 1.19 1.12 1.09
0.96 0.96 0.95 0.91 0.90 0.92 0.97 0.89 0.88 0.96 0.96 0.98 1.01 1.06 1.10 1.09 1.09 1.10 1.10 1.09 1.08 1.09 1.09 1.08 1.03 1.01 1.01 1.01 0.98 0.95 0.94 0.93 0.93 0.92 0.94 0.96 0.98 1.05 1.13 1.20 1.24 1.25 1.22 1.24 1.23 1.25 1.22 1.20 1.20 1.20 1.21 1.22 1.27 1.28 1.29 1.27 1.23 1.20 1.17 1.16 1.14 1.09 1.07 1.08 1.10 1.08 1.07 1.07 1.05 1.06 1.09 1.13 1.13 1.11 1.09 1.08 1.08 1.06 1.05 1.05 1.04 1.02 1.01 1.03 1.05 1.05 1.04
0.95 0.98 0.96 0.83 0.81 0.86 0.89 0.94 0.94 0.94 0.94 0.95 0.95 0.95 1.00 1.03 1.01 1.01 0.99 0.99 0.98 1.02 1.03 1.06 1.02 0.99 0.96 0.96 0.96 0.97 0.95 0.92 0.92 0.95 0.94 0.94 0.95 0.98 1.04 1.13 1.18 1.19 1.21 1.20 1.22 1.20 1.17 1.17 1.15 1.13 1.13 1.18 1.22 1.21 1.21 1.18 1.16 1.15 1.15 1.14 1.10 1.06 1.04 1.03 1.08 1.10 1.09 1.06 1.04 1.01 0.99 1.00 1.04 1.07 1.12 1.12 1.09 1.08 1.05 1.03 1.00 0.95 0.94 0.97 0.99 1.02 1.03
0.88 0.91 0.94 0.92 0.93 0.95 0.95 0.92 0.91 0.90 0.87 0.90 0.92 0.94 0.91 0.87 0.89 0.92 0.93 0.95 0.93 0.90 0.87 0.90 0.92 0.95 0.94 0.88 0.92 0.91 0.91 0.90 0.90 0.90 0.97 1.01 0.99 0.98 0.97 0.96 1.02 1.03 1.04 1.08 1.11 1.13 1.13 1.11 1.09 1.05 1.05 1.12 1.15 1.17 1.17 1.15 1.13 1.14 1.13 1.10 1.07 1.06 1.05 1.08 1.08 1.09 1.10 1.12 1.10 1.07 1.03 1.03 1.04 1.04 1.05 1.05 1.04 1.03 1.00 0.97 0.95 0.96 0.95 0.95 0.95 0.95 0.97
0.85 0.87 0.89 0.91 0.92 0.91 0.91 0.90 0.89 0.85 0.85 0.89 0.91 0.91 0.91 0.85 0.78 0.79 0.81 0.84 0.87 0.87 0.87 0.87 0.83 0.82 0.84 0.84 0.87 0.87 0.85 0.85 0.85 0.88 0.89 0.89 0.90 0.88 0.86 0.84 0.87 0.89 0.92 0.91 0.92 0.97 1.04 1.06 1.07 1.04 1.04 1.05 1.09 1.14 1.16 1.15 1.13 1.14 1.12 1.10 1.08 1.08 1.11 1.14 1.15 1.16 1.17 1.18 1.17 1.13 1.12 1.15 1.15 1.13 1.10 1.07 1.04 1.01 0.98 0.97 0.98 0.98 0.94 0.93 0.92 0.91 0.90
0.83 0.84 0.86 0.89 0.89 0.90 0.89 0.89 0.89 0.92 0.92 0.91 0.91 0.89 0.87 0.89 0.87 0.86 0.85 0.87 0.84 0.84 0.84 0.83 0.85 0.85 0.84 0.82 0.83 0.85 0.85 0.86 0.86 0.85 0.84 0.83 0.83 0.80 0.75 0.71 0.67 0.65 0.67 0.72 0.79 0.81 0.85 0.88 0.97 1.03 1.11 1.07 1.07 1.11 1.15 1.16 1.15 1.13 1.11 1.11 1.11 1.07 1.08 1.11 1.17 1.21 1.23 1.22 1.20 1.18 1.18 1.19 1.19 1.16 1.12 1.08 1.05 1.03 1.02 1.02 1.01 1.00 0.98 0.97 0.95 0.94 0.94
0.83 0.82 0.81 0.81 0.83 0.82 0.83 0.87 0.88 0.87 0.89 0.91 0.91 0.87 0.85 0.84 0.82 0.80 0.81 0.83 0.85 0.86 0.89 0.87 0.83 0.84 0.86 0.88 0.88 0.85 0.84 0.81 0.80 0.78 0.79 0.80 0.81 0.79 0.72 0.68 0.67 0.61 0.61 0.60 0.67 0.72 0.73 0.77 0.79 0.93 1.07 1.09 1.08 1.10 1.12 1.14 1.15 1.11 1.08 1.07 1.09 1.14 1.13 1.13 1.17 1.22 1.26 1.25 1.23 1.22 1.22 1.21 1.20 1.17 1.11 1.07 1.05 1.05 1.03 1.01 1.00 1.00 1.00 0.97 0.95 0.96 0.97
0.76 0.75 0.76 0.80 0.84 0.83 0.83 0.86 0.88 0.88 0.91 0.91 0.91 0.94 0.97 0.98 0.99 0.97 0.92 0.90 0.90 0.92 0.92 0.90 0.90 0.90 0.91 0.91 0.89 0.86 0.84 0.82 0.80 0.79 0.75 0.73 0.72 0.72 0.68 0.64 0.61 0.60 0.57 0.60 0.61 0.67 0.69 0.68 0.76 0.86 0.91 1.03 1.08 1.11 1.13 1.13 1.12 1.09 1.09 1.07 1.08 1.11 1.12 1.15 1.20 1.24 1.27 1.26 1.25 1.24 1.21 1.18 1.16 1.11 1.06 1.03 1.02 1.03 1.03 1.02 1.03 1.01 0.99 0.97 0.97 0.99 1.01
0.78 0.75 0.77 0.81 0.82 0.80 0.79 0.83 0.88 0.88 0.87 0.89 0.91 0.89 0.90 0.90 0.90 0.92 0.91 0.92 0.94 0.91 0.91 0.92 0.92 0.90 0.89 0.85 0.83 0.80 0.77 0.72 0.66 0.63 0.64 0.64 0.65 0.66 0.66 0.65 0.65 0.62 0.63 0.62 0.67 0.70 0.77 0.80 0.83 0.86 0.89 0.93 0.99 1.04 1.11 1.12 1.13 1.10 1.12 1.10 1.09 1.11 1.12 1.18 1.22 1.20 1.17 1.16 1.18 1.16 1.13 1.08 1.03 1.01 1.01 1.01 1.03 1.07 1.08 1.08 1.05 1.01 0.97 0.99 0.99 1.02 1.06
0.88 0.85 0.86 0.85 0.86 0.85 0.83 0.82 0.80 0.80 0.80 0.80 0.82 0.85 0.87 0.88 0.88 0.85 0.86 0.85 0.82 0.85 0.87 0.86 0.82 0.80 0.76 0.72 0.69 0.67 0.64 0.61 0.60 0.59 0.59 0.60 0.60 0.61 0.64 0.63 0.65 0.65 0.65 0.65 0.64 0.70 0.77 0.84 0.89 0.90 0.90 0.91 0.93 0.94 0.98 1.01 1.07 1.08 1.07 1.02 1.00 1.07 1.13 1.14 1.12 1.09 1.07 1.06 1.02 0.98 0.95 0.95 0.98 1.00 1.01 1.03 1.05 1.07 1.06 1.03 1.02 0.99 0.98 0.98 1.02 1.05 1.04
0.87 0.85 0.86 0.85 0.86 0.85 0.82 0.82 0.79 0.78 0.76 0.77 0.79 0.81 0.81 0.80 0.81 0.81 0.83 0.83 0.83 0.81 0.80 0.77 0.76 0.74 0.71 0.68 0.65 0.64 0.63 0.62 0.61 0.61 0.60 0.61 0.62 0.63 0.63 0.63 0.61 0.63 0.62 0.65 0.68 0.74 0.82 0.87 0.90 0.91 0.91 0.94 0.93 0.92 0.95 0.97 1.04 0.98 0.98 0.97 1.04 1.08 1.09 1.06 1.06 1.05 1.02 0.96 0.93 0.97 0.98 0.99 1.00 1.02 1.03 1.04 1.05 1.04 1.03 1.03 1.03 1.02 1.03 1.02 1.03 1.03 1.01
0.87 0.84 0.84 0.84 0.85 0.85 0.83 0.82 0.81 0.80 0.78 0.78 0.78 0.77 0.78 0.78 0.79 0.81 0.81 0.78 0.76 0.76 0.75 0.75 0.73 0.71 0.69 0.71 0.70 0.71 0.71 0.70 0.69 0.68 0.68 0.68 0.68 0.67 0.64 0.65 0.65 0.63 0.61 0.64 0.72 0.77 0.86 0.90 0.96 0.95 0.93 0.89 0.89 0.93 1.03 1.02 0.99 1.01 1.00 1.03 1.03 1.03 1.03 1.01 0.99 0.97 0.96 0.97 0.99 0.99 1.00 1.04 1.04 1.03 1.03 1.02 1.02 1.02 1.03 1.04 1.03 1.03 1.02 1.00 0.99 0.99 0.94
0.88 0.88 0.86 0.85 0.84 0.82 0.80 0.80 0.82 0.82 0.80 0.80 0.78 0.76 0.77 0.79 0.81 0.81 0.78 0.77 0.78 0.80 0.80 0.79 0.78 0.77 0.76 0.76 0.75 0.73 0.74 0.76 0.75 0.74 0.74 0.72 0.72 0.69 0.69 0.67 0.68 0.71 0.71 0.77 0.83 0.90 0.96 1.00 0.98 0.98 0.96 0.96 0.93 0.96 0.99 0.99 0.98 0.95 1.02 1.01 1.01 1.02 1.01 0.99 0.96 0.95 0.95 0.99 1.05 1.06 1.04 1.05 1.03 1.04 1.03 1.03 1.04 1.02 1.01 1.00 1.00 0.99 0.98 0.95 0.93 0.91 0.91
0.84 0.86 0.86 0.86 0.85 0.83 0.82 0.82 0.82 0.80 0.78 0.76 0.75 0.77 0.80 0.81 0.82 0.81 0.79 0.78 0.81 0.83 0.81 0.80 0.81 0.78 0.76 0.74 0.74 0.75 0.77 0.79 0.80 0.77 0.75 0.74 0.75 0.69 0.67 0.70 0.73 0.77 0.80 0.88 0.95 1.00 1.00 1.02 1.02 1.01 1.03 1.03 1.02 1.04 1.01 0.99 0.96 0.98 1.00 1.04 1.01 0.99 0.96 0.95 0.95 0.98 1.03 1.07 1.08 1.09 1.10 1.08 1.05 1.02 1.00 1.00 0.99 0.96 0.95 0.92 0.91 0.89 0.87 0.90 0.89 0.90 0.91
0.80 0.81 0.80 0.81 0.80 0.81 0.81 0.80 0.81 0.80 0.79 0.78 0.75 0.73 0.77 0.78 0.78 0.79 0.78 0.79 0.82 0.84 0.83 0.82 0.79 0.75 0.75 0.74 0.74 0.74 0.77 0.79 0.79 0.77 0.76 0.77 0.77 0.76 0.75 0.79 0.83 0.87 0.91 0.92 0.97 1.03 1.00 0.98 1.01 1.04 1.06 1.08 1.06 1.04 1.02 1.02 1.03 1.04 1.01 1.02 1.01 1.01 1.03 1.06 1.08 1.07 1.08 1.08 1.05 1.01 1.01 0.98 0.97 0.97 0.95 0.94 0.89 0.86 0.82 0.82 0.78 0.79 0.78 0.81 0.81 0.81 0.81
0.79 0.79 0.78 0.78 0.77 0.79 0.79 0.80 0.79 0.81 0.82 0.82 0.81 0.81 0.81 0.79 0.78 0.76 0.75 0.77 0.80 0.83 0.82 0.80 0.77 0.75 0.76 0.76 0.77 0.78 0.81 0.83 0.82 0.81 0.81 0.80 0.76 0.75 0.72 0.73 0.87 0.93 0.95 0.97 1.02 1.03 0.99 0.98 1.04 1.05 1.06 1.06 1.03 1.00 0.99 1.01 1.03 1.02 1.02 1.03 1.05 1.07 1.06 1.07 1.07 1.06 1.03 1.01 0.98 0.96 0.96 0.94 0.90 0.85 0.82 0.79 0.78 0.78 0.78 0.79 0.78 0.78 0.75 0.72 0.70 0.68 0.67
0.75 0.75 0.74 0.73 0.73 0.75 0.77 0.80 0.81 0.81 0.82 0.84 0.85 0.86 0.86 0.85 0.83 0.80 0.80 0.82 0.82 0.84 0.85 0.84 0.81 0.79 0.80 0.82 0.84 0.83 0.83 0.84 0.86 0.84 0.84 0.82 0.81 0.82 0.80 0.84 0.97 1.00 0.99 0.99 1.00 0.99 1.00 1.00 1.00 1.00 1.03 1.04 1.03 1.03 1.03 1.05 1.05 1.04 1.04 1.04 1.05 1.06 1.06 1.04 1.03 1.01 1.00 0.96 0.92 0.89 0.86 0.83 0.80 0.78 0.79 0.77 0.77 0.76 0.75 0.72 0.70 0.67 0.65 0.64 0.63 0.64 0.64
0.72 0.69 0.68 0.68 0.71 0.73 0.75 0.75 0.76 0.77 0.80 0.83 0.86 0.87 0.88 0.88 0.88 0.87 0.87 0.87 0.88 0.88 0.87 0.87 0.87 0.86 0.85 0.84 0.83 0.81 0.81 0.85 0.88 0.89 0.89 0.89 0.93 0.95 0.94 0.95 1.01 1.02 1.01 1.01 1.01 1.03 1.01 1.01 1.03 1.07 1.09 1.10 1.09 1.10 1.08 1.08 1.07 1.07 1.08 1.07 1.06 1.03 1.00 0.95 0.93 0.93 0.90 0.88 0.86 0.85 0.84 0.83 0.83 0.82 0.79 0.73 0.71 0.70 0.67 0.65 0.64 0.64 0.64 0.64 0.64 0.64 0.64
0.72 0.70 0.70 0.68 0.68 0.68 0.68 0.69 0.70 0.72 0.73 0.77 0.83 0.86 0.86 0.85 0.85 0.85 0.83 0.83 0.82 0.82 0.83 0.83 0.83 0.83 0.84 0.85 0.83 0.81 0.81 0.82 0.85 0.88 0.89 0.89 0.92 0.95 1.00 1.00 1.01 1.00 1.01 1.02 1.04 1.04 1.05 1.04 1.07 1.07 1.07 1.10 1.07 1.06 1.08 1.07 1.07 1.06 1.04 1.01 0.97 0.94 0.90 0.88 0.88 0.88 0.88 0.86 0.84 0.83 0.82 0.79 0.74 0.71 0.66 0.61 0.56 0.55 0.54 0.50 0.49 0.49 0.49 0.51 0.55 0.61 0.65
0.70 0.70 0.70 0.69 0.68 0.66 0.63 0.63 0.64 0.65 0.69 0.73 0.71 0.71 0.73 0.75 0.76 0.77 0.78 0.78 0.78 0.78 0.78 0.79 0.79 0.79 0.81 0.83 0.84 0.86 0.89 0.88 0.84 0.85 0.81 0.80 0.81 0.86 0.97 1.01 1.01 1.02 0.98 0.99 0.98 0.99 1.02 1.03 1.02 1.04 1.05 1.03 1.03 1.04 1.04 1.03 1.01 1.00 0.98 0.96 0.95 0.93 0.91 0.89 0.87 0.86 0.85 0.83 0.80 0.76 0.72 0.65 0.62 0.57 0.55 0.53 0.50 0.50 0.51 0.51 0.52 0.51 0.50 0.47 0.47 0.46 0.47
0.72 0.72 0.72 0.71 0.67 0.65 0.64 0.65 0.68 0.73 0.73 0.68 0.64 0.63 0.64 0.66 0.66 0.67 0.67 0.67 0.70 0.71 0.73 0.75 0.75 0.75 0.77 0.78 0.82 0.86 0.88 0.87 0.87 0.87 0.87 0.83 0.79 0.85 0.95 0.96 0.99 0.98 0.94 0.97 0.98 0.98 0.98 0.94 0.95 0.96 0.94 0.94 0.92 0.93 0.92 0.91 0.90 0.90 0.88 0.89 0.88 0.88 0.87 0.87 0.83 0.79 0.76 0.71 0.68 0.64 0.60 0.58 0.56 0.55 0.55 0.54 0.53 0.52 0.53 0.51 0.49 0.50 0.52 0.52 0.50 0.49 0.48
0.72 0.73 0.72 0.71 0.71 0.68 0.68 0.68 0.70 0.66 0.61 0.60 0.58 0.58 0.60 0.61 0.61 0.61 0.61 0.64 0.65 0.68 0.71 0.71 0.70 0.70 0.72 0.73 0.74 0.76 0.77 0.80 0.86 0.88 0.86 0.90 0.92 0.93 0.92 0.92 0.91 0.91 0.95 1.01 0.96 0.98 0.98 0.92 0.91 0.91 0.87 0.86 0.87 0.86 0.83 0.82 0.81 0.80 0.78 0.78 0.78 0.77 0.75 0.74 0.71 0.68 0.64 0.62 0.59 0.57 0.55 0.55 0.54 0.54 0.53 0.52 0.52 0.52 0.53 0.53 0.53 0.53 0.53 0.52 0.51 0.50 0.49
0.71 0.69 0.68 0.70 0.71 0.72 0.74 0.70 0.64 0.61 0.60 0.59 0.60 0.59 0.59 0.62 0.62 0.61 0.59 0.59 0.60 0.61 0.61 0.62 0.64 0.64 0.63 0.62 0.66 0.71 0.70 0.68 0.71 0.78 0.84 0.86 0.89 0.90 0.91 0.93 0.94 0.90 0.86 0.88 0.82 0.83 0.85 0.86 0.86 0.85 0.82 0.79 0.78 0.78 0.75 0.73 0.70 0.67 0.65 0.64 0.64 0.64 0.63 0.62 0.61 0.60 0.58 0.56 0.54 0.53 0.53 0.53 0.54 0.55 0.56 0.56 0.56 0.56 0.56 0.56 0.55 0.53 0.53 0.52 0.51 0.50 0.48
0.67 0.68 0.69 0.71 0.70 0.68 0.66 0.64 0.63 0.61 0.61 0.61 0.63 0.62 0.63 0.62 0.62 0.59 0.59 0.58 0.58 0.57 0.57 0.57 0.57 0.60 0.61 0.65 0.63 0.62 0.61 0.65 0.62 0.61 0.70 0.76 0.77 0.81 0.86 0.89 0.87 0.83 0.84 0.86 0.88 0.90 0.86 0.84 0.82 0.83 0.80 0.78 0.78 0.78 0.75 0.70 0.66 0.64 0.63 0.61 0.60 0.60 0.60 0.59 0.58 0.57 0.55 0.54 0.53 0.53 0.55 0.56 0.57 0.58 0.58 0.58 0.58 0.57 0.56 0.56 0.56 0.55 0.53 0.52 0.51 0.49 0.46
0.67 0.69 0.67 0.64 0.63 0.62 0.60 0.60 0.61 0.61 0.64 0.63 0.64 0.64 0.65 0.63 0.60 0.56 0.58 0.57 0.56 0.53 0.52 0.54 0.54 0.55 0.54 0.55 0.56 0.61 0.65 0.63 0.63 0.62 0.61 0.66 0.67 0.69 0.72 0.78 0.81 0.79 0.77 0.81 0.83 0.84 0.87 0.83 0.82 0.81 0.81 0.81 0.81 0.80 0.79 0.75 0.68 0.65 0.65 0.63 0.61 0.60 0.59 0.59 0.58 0.57 0.57 0.56 0.55 0.55 0.56 0.58 0.59 0.58 0.59 0.60 0.61 0.60 0.59 0.59 0.59 0.57 0.54 0.53 0.50 0.46 0.45
0.69 0.66 0.62 0.63 0.63 0.65 0.64 0.61 0.61 0.62 0.64 0.64 0.65 0.65 0.65 0.63 0.60 0.59 0.61 0.58 0.59 0.57 0.55 0.56 0.56 0.56 0.58 0.59 0.58 0.58 0.59 0.61 0.60 0.64 0.64 0.63 0.63 0.62 0.60 0.61 0.66 0.65 0.70 0.71 0.76 0.80 0.84 0.87 0.86 0.84 0.81 0.79 0.80 0.80 0.80 0.79 0.75 0.69 0.65 0.65 0.65 0.64 0.63 0.61 0.59 0.59 0.59 0.59 0.59 0.60 0.60 0.61 0.61 0.62 0.63 0.63 0.63 0.62 0.61 0.60 0.58 0.57 0.55 0.52 0.50 0.47 0.46
0.70 0.71 0.70 0.68 0.68 0.70 0.68 0.70 0.73 0.73 0.67 0.66 0.66 0.65 0.65 0.64 0.63 0.62 0.63 0.65 0.58 0.59 0.58 0.56 0.56 0.58 0.60 0.63 0.62 0.61 0.62 0.59 0.57 0.60 0.61 0.62 0.64 0.63 0.63 0.67 0.65 0.69 0.70 0.68 0.67 0.67 0.72 0.75 0.77 0.80 0.81 0.81 0.82 0.82 0.81 0.79 0.77 0.76 0.73 0.69 0.67 0.67 0.68 0.66 0.65 0.64 0.63 0.63 0.63 0.63 0.63 0.63 0.64 0.63 0.64 0.64 0.64 0.63 0.62 0.61 0.60 0.58 0.55 0.52 0.50 0.48 0.47
Wind_Speed
32 31 30 29 29 30 31 33 35 37 38 39 40 41 42 40 39 37 35 36 39 39 37 34 29 25 25 25 25 26 25 24 22 20 19 19 20 21 22 22 22 22 23 24 23 22 22 22 22 21 20 20 19 19 19 19 19 19 19 19 20 20 21 21 22 22 22 22 23 23 23 24 25 25 25 26 26 27 29 30 29 29 30 30 29 28 27
31 32 32 32 32 32 33 35 36 36 39 40 41 41 42 43 43 41 38 38 39 38 39 39 36 32 28 27 27 28 28 26 24 22 22 21 21 22 23 23 23 23 24 24 24 23 22 22 22 21 21 20 19 19 19 19 19 19 19 19 20 20 21 21 22 22 23 23 23 23 23 24 25 25 25 26 26 27 30 30 29 29 30 29 29 27 26
28 30 31 31 33 33 34 36 36 37 37 39 40 41 41 41 42 43 42 42 40 37 37 38 38 37 35 32 30 30 30 28 25 23 23 22 22 23 24 24 23 23 24 24 24 23 23 23 22 22 21 20 20 20 20 20 20 20 20 19 19 20 20 20 21 21 22 22 23 24 24 25 26 27 27 27 27 28 29 29 29 29 28 27 26 25 25
25 26 28 30 31 32 34 35 36 37 37 37 37 38 40 40 41 41 42 42 40 38 37 37 37 38 37 35 33 32 31 30 27 24 24 23 23 23 24 24 23 24 25 25 25 24 24 23 23 21 20 20 20 20 20 19 19 19 19 19 19 19 19 20 20 21 22 22 23 24 25 26 27 28 28 28 29 29 29 29 29 28 28 27 26 25 26
23 23 25 27 28 29 31 33 34 36 36 37 37 37 39 40 40 39 39 39 37 36 36 36 37 38 38 36 35 33 31 29 27 26 25 23 22 23 23 24 24 25 26 26 25 25 24 24 23 21 20 20 20 20 19 19 19 19 18 19 19 19 19 20 20 21 22 23 23 24 25 26 27 28 28 29 29 29 28 29 29 28 27 26 26 26 25
21 21 21 22 24 26 26 27 31 35 36 37 38 38 38 38 38 38 37 36 34 34 35 35 36 37 37 36 35 34 32 29 27 26 25 23 22 21 22 23 24 25 25 25 25 25 24 24 23 22 21 20 20 19 19 19 19 19 18 18 18 19 19 19 20 20 21 23 23 23 24 25 26 27 28 28 29 29 28 28 28 27 26 25 25 25 25
20 20 19 20 23 24 22 21 25 30 33 35 37 37 38 38 38 38 38 37 34 33 34 34 33 33 34 33 32 33 32 30 28 26 24 23 22 21 22 22 23 24 26 26 26 26 25 25 23 22 21 21 20 20 19 19 19 18 18 18 18 18 19 19 19 20 20 22 22 22 23 25 26 27 28 28 28 28 27 28 27 26 24 24 24 24 24
20 20 21 22 21 20 21 21 21 23 28 31 34 35 37 38 37 37 38 38 37 35 33 33 33 31 30 29 29 31 31 31 30 27 26 25 24 22 22 23 24 25 26 27 27 26 26 25 24 23 22 22 21 20 20 19 18 18 18 18 18 18 19 19 19 19 20 21 21 22 23 25 25 27 28 27 26 26 26 27 26 25 24 24 23 23 23
20 20 21 22 21 20 20 19 18 19 22 26 28 31 33 35 36 36 36 37 37 36 35 34 32 30 28 28 29 31 31 31 31 30 28 28 26 25 24 24 25 25 26 27 27 26 25 25 24 23 23 22 22 21 20 19 18 18 18 18 18 19 19 19 19 19 20 21 22 23 23 24 25 27 27 26 26 25 25 25 25 25 25 25 24 23 23
20 20 20 21 21 20 17 15 15 17 19 22 24 27 29 31 32 34 35 36 36 36 35 34 30 28 29 29 29 31 31 31 31 30 29 28 27 26 25 25 25 26 26 26 27 27 25 25 24 23 23 22 21 20 20 19 19 19 18 18 18 19 19 19 19 20 21 22 22 23 23 24 25 26 26 25 25 25 24 24 24 25 25 25 25 24 24
24 23 21 20 20 18 15 14 14 15 17 19 21 24 27 28 30 32 34 35 35 35 35 32 29 28 31 30 28 29 29 29 29 29 28 27 27 26 25 25 25 26 26 26 26 26 25 24 23 23 22 21 21 21 21 20 20 19 19 19 19 19 19 20 20 21 22 23 23 23 23 24 24 25 25 24 24 24 23 23 23 24 24 24 24 24 24
27 25 24 22 20 17 14 14 15 16 17 17 19 23 24 23 24 28 31 33 34 34 34 32 29 30 31 28 26 25 26 26 26 27 27 27 27 26 25 25 25 25 25 25 26 27 25 24 23 23 22 21 22 22 21 21 21 20 19 20 20 20 20 20 21 22 23 24 24 24 23 24 24 24 23 23 22 23 23 22 22 22 22 23 23 23 23
27 27 26 25 23 19 16 15 16 16 17 18 20 22 20 19 21 23 26 29 31 32 32 31 30 30 28 25 23 23 23 24 25 25 26 26 26 25 24 24 24 24 24 25 26 26 25 24 23 23 23 22 22 22 22 21 21 20 20 21 21 22 22 22 23 24 24 24 24 23 23 23 24 24 23 22 21 21 21 21 21 21 21 22 22 21 21
27 27 27 26 24 21 18 16 16 16 18 19 19 20 20 21 21 21 22 26 27 28 30 30 29 29 26 24 23 23 23 23 24 25 25 25 25 24 24 23 24 24 24 24 25 24 24 24 23 23 23 23 22 21 21 21 20 21 21 22 22 23 23 23 24 25 25 24 24 24 23 23 23 23 23 22 21 20 20 20 20 20 20 21 21 20 20
26 27 27 26 24 21 18 17 16 16 18 19 19 19 21 21 20 20 21 23 24 27 28 28 27 27 27 25 24 23 22 23 23 23 24 23 23 23 23 23 23 23 24 23 23 23 23 23 23 23 23 22 21 21 21 21 21 22 22 22 23 23 24 25 25 25 25 25 25 24 24 23 23 22 22 21 20 20 20 20 20 20 21 21 20 19 20
27 28 27 25 23 20 17 17 16 17 19 20 20 20 20 19 19 19 19 20 22 25 25 25 25 26 26 25 24 23 23 22 21 21 21 21 21 21 21 22 23 23 22 22 22 22 22 23 23 23 22 21 21 20 21 21 22 22 22 23 23 24 25 25 26 26 25 25 25 24 23 22 22 22 21 20 19 19 20 21 21 21 21 21 20 20 20
25 25 23 21 20 20 18 17 16 17 19 20 20 19 18 17 16 17 17 17 20 22 22 22 23 24 24 23 22 22 21 21 20 20 20 20 20 20 21 21 22 21 21 21 21 21 21 22 22 22 22 22 21 21 22 23 23 22 22 23 23 24 25 25 25 25 25 25 24 23 22 22 22 21 20 19 19 19 20 21 21 21 20 20 20 20 20
22 22 21 20 20 20 18 16 15 17 18 18 18 17 16 14 13 13 14 15 17 19 20 21 22 22 21 20 20 20 20 19 20 20 20 20 20 20 20 20 20 20 20 21 21 21 21 22 22 22 22 22 21 22 22 23 22 22 22 23 24 24 24 24 24 24 24 23 23 22 22 22 21 21 20 20 19 20 20 21 21 21 20 20 20 21 21
20 20 19 19 20 20 19 16 14 15 16 15 15 14 14 13 12 11 11 13 16 18 19 20 21 21 20 19 19 19 19 19 20 20 20 19 19 19 18 18 18 19 20 21 21 22 22 22 22 22 22 22 22 22 22 22 21 22 23 24 24 24 23 23 23 23 23 22 22 22 22 22 21 21 20 20 20 20 20 21 21 21 20 20 21 22 22
18 17 16 17 17 17 16 15 13 12 13 13 12 12 12 11 10 9 10 12 15 16 17 18 19 19 19 19 18 18 19 19 19 19 19 18 18 18 17 17 17 18 19 20 21 21 22 23 23 22 22 22 22 22 21 22 22 23 23 23 23 22 21 21 22 22 22 21 22 22 22 21 21 21 21 21 21 21 21 21 22 21 21 21 22 23 23
17 16 16 16 15 15 15 14 13 12 12 12 12 12 12 11 11 11 12 13 14 15 15 16 17 17 18 18 18 17 17 17 18 18 18 18 17 17 17 17 17 17 19 19 20 21 21 22 22 22 22 21 21 22 22 22 22 22 22 22 22 21 21 22 22 22 21 21 22 22 21 21 21 20 20 21 21 21 21 22 22 22 22 22 23 23 23
16 15 16 16 15 15 15 16 15 14 12 12 12 12 11 11 12 14 16 16 15 15 15 15 16 16 16 16 16 17 16 16 16 17 17 18 17 17 17 17 17 17 18 19 19 19 20 21 21 21 21 21 22 22 22 22 22 22 21 21 22 21 22 22 21 21 22 22 22 22 21 21 21 21 21 21 20 21 22 22 22 22 23 23 24 24 23
15 14 15 16 15 15 15 16 17 15 13 12 12 12 12 11 11 14 16 16 15 14 14 14 15 15 15 15 15 16 16 16 16 17 17 18 18 18 18 18 17 17 18 18 18 18 19 20 21 21 21 22 22 22 22 22 22 22 22 22 22 22 22 22 21 21 21 21 21 21 21 21 21 21 21 21 21 21 21 22 23 23 24 24 24 23 22
16 16 17 16 15 15 16 17 16 15 14 14 13 12 12 12 12 13 15 15 14 13 13 13 14 14 14 15 15 15 15 15 16 16 16 17 18 18 18 18 18 18 18 18 19 19 20 21 21 21 21 22 22 22 22 22 22 22 22 22 22 21 21 21 20 20 21 21 21 21 21 21 21 21 21 21 21 21 21 22 22 23 23 23 23 23 22
17 17 17 17 17 17 18 18 17 15 15 16 15 13 13 14 13 13 14 15 15 14 13 13 13 14 14 15 15 15 15 15 15 16 16 16 16 17 17 17 18 19 19 20 20 21 21 21 21 21 21 22 22 23 23 23 22 22 21 21 21 20 20 20 20 20 20 20 20 20 20 20 20 20 21 21 21 21 21 21 21 21 22 22 22 22 22
17 18 18 18 18 19 19 20 19 17 16 15 15 15 15 16 15 15 14 15 15 15 14 14 14 14 15 15 15 15 15 15 15 15 16 16 16 16 17 18 19 20 20 21 21 21 21 21 22 22 22 22 22 23 22 22 21 21 21 20 20 20 20 20 20 20 20 20 20 20 20 20 20 20 20 21 21 21 20 20 20 20 20 21 21 21 21
15 16 18 19 19 19 18 19 19 18 17 15 15 15 16 17 17 16 15 15 15 16 15 15 15 16 16 16 17 16 16 15 16 16 16 16 16 16 17 17 18 19 20 21 21 20 20 21 21 21 21 21 21 21 21 20 20 20 20 20 20 19 19 19 19 19 20 20 20 20 20 19 19 20 20 20 20 20 20 20 20 20 20 20 20 20 20
12 13 15 17 18 18 18 18 18 17 17 16 15 14 15 16 16 16 16 16 16 17 16 16 17 18 18 18 18 18 18 17 17 18 19 19 18 18 17 17 18 19 19 20 20 20 20 20 19 19 20 20 20 20 20 20 20 20 20 20 19 19 19 20 20 20 20 20 20 20 20 20 20 20 20 20 20 20 20 20 20 19 19 19 20 20 21
11 11 12 14 16 17 17 17 17 16 16 15 16 15 15 14 15 15 16 16 17 17 17 16 16 17 17 17 17 18 18 17 17 18 19 20 19 19 19 19 19 19 18 19 19 20 20 20 20 19 19 20 20 20 20 20 20 20 20 19 19 19 20 20 20 21 21 21 21 21 21 21 20 20 20 19 19 19 20 20 20 20 21 21 21 21 22
10 10 11 13 15 16 16 15 15 15 15 15 15 14 14 14 14 14 15 15 15 16 16 15 15 15 15 15 15 16 16 16 17 17 17 18 19 19 19 19 18 18 18 19 19 20 20 20 20 20 20 20 21 21 20 20 20 20 20 20 20 20 20 21 22 22 22 22 22 21 21 21 21 20 20 20 20 20 21 21 22 22 22 22 22 22 23
9 9 10 12 13 13 13 14 14 15 15 15 14 14 13 14 14 14 14 15 15 15 15 15 15 15 15 16 16 16 17 17 18 18 18 18 18 19 19 18 18 19 19 20 20 20 20 20 21 21 21 21 21 20 20 20 20 20 20 21 21 21 22 22 22 22 22 22 22 21 21 21 21 21 20 21 21 21 22 22 23 23 23 23 23 24 24
10 9 10 11 13 13 13 14 14 14 14 15 14 14 14 14 14 14 14 14 14 14 15 15 15 15 16 16 17 17 17 18 18 18 18 18 18 19 19 19 19 19 20 20 20 20 21 21 21 21 21 21 21 21 21 21 21 21 22 22 22 22 23 23 22 22 21 21 21 21 21 21 21 21 21 21 22 22 23 23 23 23 23 24 24 24 24
9 9 9 10 11 11 12 12 12 12 13 13 13 13 13 13 14 14 14 14 13 13 14 14 14 14 15 15 16 16 16 16 17 17 17 17 18 19 19 19 19 20 20 20 20 20 20 21 20 20 21 21 21 21 22 22 22 22 22 22 22 22 22 22 22 21 21 21 22 22 22 22 22 22 22 22 22 23 23 23 24 24 24 24 25 24 24
7 8 8 8 8 9 10 10 10 10 11 11 11 12 12 12 12 12 13 13 13 13 13 13 13 14 14 14 14 14 14 15 15 16 16 16 17 17 18 18 19 19 19 20 20 20 20 21 21 21 21 21 22 22 22 22 22 23 23 22 22 22 22 21 21 21 21 21 22 22 22 22 22 22 22 22 23 23 23 23 24 24 24 24 24 24 23
6 7 7 7 7 8 8 8 8 9 10 10 11 11 11 11 10 11 11 12 12 11 11 12 12 13 13 13 13 13 14 14 15 15 15 15 16 16 17 17 18 18 19 20 20 21 21 21 21 21 21 22 22 22 22 22 22 22 22 22 22 22 22 21 21 21 21 21 22 22 22 21 21 21 21 22 22 23 23 23 23 23 24 24 24 23 22
5 6 6 5 5 6 7 7 7 8 9 9 10 10 10 10 10 10 10 10 10 10 10 11 11 11 12 12 12 13 13 14 14 14 14 15 15 16 17 17 18 18 19 19 19 20 21 21 21 21 21 21 21 21 21 21 21 21 22 22 21 21 21 21 21 21 21 21 21 21 21 21 21 21 21 21 22 22 22 22 23 23 23 23 23 22 21
4 5 5 5 5 5 6 7 7 7 8 9 9 9 9 9 9 9 9 9 9 9 10 10 10 11 11 11 12 12 13 13 14 14 14 15 16 16 16 17 17 18 18 18 18 19 19 19 19 19 19 19 19 19 20 20 21 21 21 21 21 21 20 20 20 20 20 21 21 21 20 20 20 20 21 21 21 21 21 21 22 22 22 22 22 21 20
4 4 5 6 6 6 6 6 7 7 7 8 8 9 9 9 9 9 8 8 8 9 9 9 10 10 10 10 11 11 12 12 13 14 14 14 15 15 16 16 16 17 17 17 17 17 17 16 17 17 17 17 18 18 18 19 19 19 19 20 20 20 20 20 20 20 20 20 20 20 20 19 19 19 19 20 20 20 20 20 21 21 21 21 20 20 19
4 4 4 5 5 6 6 6 6 6 6 7 7 8 8 8 7 7 7 7 8 8 9 9 9 9 9 10 10 10 11 12 12 13 13 13 14 14 14 14 15 15 15 15 15 14 14 14 15 15 16 16 16 17 17 17 17 17 18 18 18 19 19 19 19 19 19 18 18 18 18 18 18 18 18 18 18 18 18 19 19 20 20 19 18 17 17
4 4 4 4 4 5 6 5 5 5 6 6 6 6 6 6 6 6 6 6 7 7 8 8 8 9 9 9 10 10 11 11 11 12 12 12 12 12 12 12 12 12 13 13 13 13 13 13 14 14 14 15 15 15 15 16 16 16 16 17 17 17 17 17 17 17 17 17 17 17 17 17 17 18 18 18 17 17 17 17 18 18 17 17 16 16 16
4 4 3 3 3 3 4 4 4 4 4 4 4 5 5 5 5 6 6 6 6 6 7 7 8 8 9 9 10 10 10 10 10 10 10 10 10 10 10 10 10 10 11 11 11 11 12 12 12 12 13 13 13 14 14 15 15 15 15 15 15 16 16 16 16 16 16 16 15 16 16 16 17 17 17 17 17 16 16 16 16 16 16 16 16 16 16
4 3 3 3 3 3 3 3 3 2 2 3 3 3 3 4 4 5 5 6 6 6 6 7 7 8 8 9 9 9 9 9 9 8 8 9 9 9 9 9 9 10 10 10 10 11 11 11 11 12 12 13 13 13 13 14 14 14 14 14 14 14 14 14 15 15 15 15 15 15 16 16 16 16 16 16 16 16 15 15 16 16 16 16 16 16 16
3 2 2 2 2 2 2 2 2 2 2 2 3 3 3 3 4 4 5 5 5 6 6 6 6 7 7 7 7 7 8 8 8 8 8 8 8 8 8 9 9 9 9 9 10 10 10 11 11 12 12 12 12 12 12 13 13 12 12 13 13 14 14 14 14 15 15 15 16 16 16 16 16 15 15 15 15 15 15 15 16 16 16 17 17 17 16
3 2 2 2 2 2 2 3 3 3 3 3 3 3 4 4 4 4 4 5 5 5 5 6 6 6 6 7 7 7 8 8 8 8 8 8 8 8 9 9 9 9 9 9 10 10 10 10 11 11 11 11 12 12 12 12 12 12 13 13 13 14 14 14 15 15 15 15 16 16 15 15 15 14 14 14 14 15 15 15 15 16 16 16 16 16 16
3 3 3 3 3 3 3 4 4 4 4 4 4 4 4 4 5 5 5 5 6 6 6 6 6 7 7 7 8 8 8 8 9 9 9 9 9 10 10 11 11 11 11 11 11 11 11 11 11 11 11 11 12 12 13 13 13 13 13 14 14 14 14 15 15 15 15 15 15 15 15 14 14 14 14 14 14 14 14 14 15 15 15 15 15 15 15
4 4 4 4 4 4 4 4 4 5 5 5 5 5 5 6 6 6 7 7 7 7 7 7 8 8 8 9 9 9 9 9 9 10 10 10 10 11 11 11 12 12 12 12 12 12 12 12 12 12 12 12 12 13 13 13 13 14 14 14 14 14 14 14 15 15 15 14 14 14 14 14 14 14 14 14 14 14 14 14 14 14 14 14 14 14 14
4 5 5 5 5 5 5 5 5 5 5 6 6 6 6 7 7 7 8 8 9 9 9 9 9 9 9 10 10 10 10 10 10 10 11 11 11 11 12 12 12 12 13 13 13 13 13 13 13 13 13 13 13 13 13 13 13 14 14 14 14 14 14 14 14 14 14 14 14 14 14 14 14 14 14 14 14 14 14 14 14 14 14 14 14 15 15
4 5 5 5 6 6 6 7 6 6 6 6 7 7 7 7 8 8 8 9 9 10 10 10 10 10 10 10 10 10 10 11 11 11 11 12 12 12 12 12 13 13 14 14 14 14 13 13 13 13 14 14 14 14 14 14 14 14 14 14 15 15 15 14 14 14 14 14 14 14 14 15 15 15 14 14 15 15 15 15 16 16 16 15 16 16 16
4 5 5 5 6 6 6 7 7 7 7 8 8 8 8 9 9 9 9 9 9 9 9 9 9 10 10 11 11 11 11 11 12 12 13 13 13 13 13 13 14 14 15 15 15 14 14 14 14 14 15 15 15 14 14 14 14 15 15 15 15 15 15 15 15 15 15 15 15 15 15 15 15 15 15 15 16 16 16 17 17 17 17 17 17 18 18
5 5 6 6 6 7 7 7 7 8 8 9 9 9 10 10 9 9 9 9 9 9 9 10 10 10 10 11 11 12 12 13 13 14 14 14 14 14 14 15 15 15 15 15 15 15 15 15 15 16 16 16 16 16 16 15 15 15 15 15 15 15 15 15 15 15 15 16 16 16 16 16 17 17 17 17 18 18 19 19 19 19 19 19 19 19 19
7 7 7 7 7 8 8 8 9 9 9 9 10 10 10 10 10 10 10 10 11 11 11 11 11 11 12 12 12 12 13 14 14 15 15 15 16 16 16 16 16 16 16 16 16 16 16 16 16 17 17 17 17 17 17 17 17 16 16 16 16 16 16 16 17 17 17 17 17 18 18 18 19 19 19 19 20 20 20 21 21 21 20 20 20 20 19
8 8 9 9 9 9 9 9 9 10 10 10 10 11 11 11 11 11 11 11 12 12 12 13 13 13 13 13 14 14 14 15 15 15 16 16 17 17 17 17 17 16 16 16 16 17 17 17 17 18 18 18 18 18 18 18 18 18 18 18 18 18 18 19 19 19 19 19 19 20 20 20 20 21 21 21 21 21 21 21 21 21 21 20 20 20 20
Wind_Direction
236 237 237 235 233 232 231 230 229 229 230 230 230 232 233 234 236 239 238 236 236 236 234 233 232 230 231 234 236 239 241 242 241 238 236 237 235 231 229 230 231 231 227 221 219 219 220 222 224 226 227 228 228 228 229 231 231 232 235 239 243 247 251 253 256 258 260 262 264 264 265 266 268 268 268 267 268 269 269 270 271 271 270 270 269 266 264
237 236 236 237 236 234 233 232 232 231 231 231 232 234 234 235 237 240 240 240 239 237 236 236 237 237 237 239 240 240 241 242 243 241 239 240 239 234 231 230 231 231 226 220 218 218 220 222 224 225 227 228 228 228 230 231 232 234 237 243 247 250 254 257 259 262 264 265 266 266 267 268 270 270 270 270 272 272 270 270 271 271 270 270 268 263 261
237 235 235 236 237 237 235 233 233 233 233 233 233 233 233 235 237 239 240 242 241 239 238 239 238 238 240 241 240 240 240 241 243 242 240 240 240 235 232 230 229 227 222 219 217 218 220 222 223 224 227 227 227 228 229 230 232 235 239 244 249 253 256 260 261 264 266 267 268 268 269 271 272 273 273 272 273 273 271 269 270 270 270 268 265 260 261
237 234 234 235 237 238 238 235 232 232 233 233 233 233 233 234 235 237 238 240 241 240 240 239 238 237 239 239 238 239 240 240 241 241 240 239 238 233 229 227 226 223 219 218 218 218 219 221 222 224 226 227 227 228 229 231 234 237 241 246 251 255 258 261 263 265 268 270 271 271 272 273 275 275 275 274 273 273 272 270 268 268 268 267 262 259 262
238 236 235 235 236 237 237 235 232 232 233 234 235 235 234 234 234 236 237 239 241 241 239 238 237 237 237 237 236 238 239 239 239 240 240 239 236 230 227 225 223 221 219 218 219 219 219 221 222 225 226 226 227 228 229 232 235 238 243 247 252 256 259 262 265 267 269 272 273 273 274 275 276 277 276 275 273 273 273 271 268 266 267 266 261 259 262
238 236 234 235 236 235 237 236 234 233 234 234 236 237 236 235 234 236 238 240 241 240 237 237 237 237 236 236 235 235 237 236 236 238 238 236 233 229 225 223 221 220 218 219 219 219 220 222 223 225 226 227 228 228 230 232 234 238 242 247 253 257 260 263 266 268 270 273 275 275 276 278 278 278 278 276 275 274 274 271 268 266 265 264 260 260 261
238 234 230 233 235 236 238 240 237 236 235 235 237 238 238 237 236 236 238 238 239 239 238 237 237 236 235 235 233 233 234 233 234 235 233 229 227 226 225 222 220 220 220 220 220 220 221 223 224 225 226 227 228 229 230 231 234 238 243 249 254 259 262 265 268 270 272 275 278 279 279 279 279 280 279 278 277 275 274 271 268 265 263 262 261 261 261
236 234 231 234 238 240 241 241 241 240 238 235 236 238 237 237 237 237 237 237 238 238 237 237 236 235 234 233 232 231 232 232 232 232 230 227 225 225 225 223 222 222 222 221 220 221 222 223 224 225 226 227 228 228 229 233 236 240 246 251 256 261 264 266 269 272 276 279 281 283 282 281 281 281 281 280 278 276 274 272 269 265 262 261 261 261 261
234 236 236 237 240 242 241 240 240 241 240 237 236 239 239 237 237 238 237 236 236 235 236 237 236 234 233 233 231 230 231 230 230 231 231 229 228 226 227 226 224 223 222 220 220 221 221 222 223 225 226 228 228 228 230 235 239 243 249 254 258 262 265 267 270 275 279 282 285 286 285 284 283 283 282 280 277 275 274 272 269 266 263 262 260 260 261
231 236 239 237 238 237 235 236 242 246 246 242 240 241 240 238 237 237 236 235 234 233 235 236 233 231 233 235 233 231 229 229 229 230 231 230 228 226 226 226 225 223 222 220 220 220 221 222 223 225 225 227 227 228 231 236 240 245 251 256 261 264 266 269 273 277 281 284 287 288 288 287 286 285 282 278 277 277 276 273 269 267 264 262 261 262 263
228 232 237 237 238 235 230 237 250 254 250 245 241 240 239 238 237 236 235 234 233 232 233 232 229 230 234 235 233 229 227 226 227 227 227 227 226 224 224 225 225 223 221 218 218 219 220 221 222 222 223 225 227 228 232 237 242 247 253 258 263 266 268 271 275 278 282 286 288 289 289 288 287 284 280 278 278 278 277 274 270 267 265 263 262 264 266
226 229 235 238 239 239 239 247 257 258 251 242 236 236 238 240 243 242 238 235 233 231 230 228 228 231 234 234 232 226 223 223 224 223 223 223 223 222 222 223 223 222 219 217 217 218 219 219 219 220 223 227 229 230 234 239 244 249 254 259 264 267 270 274 277 280 284 287 289 289 289 288 286 283 280 279 278 278 277 274 270 267 265 263 264 266 267
227 229 234 238 238 240 246 255 259 257 249 238 232 235 240 245 249 249 244 239 235 231 227 227 228 230 232 231 228 222 220 220 220 220 221 220 220 220 219 221 222 220 218 216 215 215 217 218 220 223 226 229 230 232 236 240 245 251 256 261 266 269 272 275 279 282 285 287 288 289 289 288 284 282 281 280 278 278 276 272 270 267 266 265 265 266 266
228 230 234 238 237 238 246 256 258 252 243 236 237 243 247 248 248 246 243 240 236 231 227 226 227 226 225 225 223 221 220 218 216 216 218 217 218 218 218 220 220 217 215 214 213 214 217 219 222 225 227 228 230 234 238 243 248 253 258 264 269 271 272 276 281 284 285 286 287 288 289 287 283 281 281 280 279 278 276 272 270 268 267 266 265 265 264
227 230 233 236 236 236 244 253 253 247 243 243 247 249 248 248 248 245 241 238 235 230 226 222 221 220 220 221 220 219 217 216 214 215 215 215 215 216 216 216 214 212 211 212 212 215 219 221 224 226 227 229 232 236 241 247 252 257 262 267 271 273 274 277 281 283 284 284 285 287 287 284 280 279 281 280 278 277 275 272 271 269 268 265 263 263 263
226 230 232 236 237 236 240 245 248 250 252 252 251 249 247 246 247 244 239 236 232 227 221 216 214 213 214 216 216 214 213 213 212 211 211 211 212 211 210 210 209 208 210 212 214 216 219 222 224 226 228 230 234 240 246 251 257 262 265 269 273 276 277 279 281 282 283 284 285 286 285 281 278 278 278 277 277 275 273 272 271 268 266 263 261 263 266
228 233 236 238 238 236 237 239 245 255 258 252 247 245 244 242 242 240 236 231 224 217 212 208 206 205 206 208 209 208 207 207 206 204 202 203 204 203 204 205 206 207 209 211 213 215 219 222 225 229 232 235 239 246 252 257 260 263 266 270 274 277 278 279 280 281 283 284 284 283 281 278 277 276 275 275 274 274 273 272 270 266 264 262 262 264 268
228 233 238 238 237 236 235 237 246 256 255 247 241 240 237 233 232 231 227 218 209 204 202 200 197 196 197 198 198 198 198 198 197 196 196 198 199 200 201 204 206 208 209 211 214 218 222 227 231 235 238 242 247 253 257 259 260 263 267 272 276 278 279 280 280 281 283 283 281 279 278 277 276 274 273 273 273 274 274 271 267 264 263 263 263 266 270
225 230 236 238 238 237 234 235 246 254 247 238 234 232 229 225 220 215 210 201 192 189 189 188 187 188 188 188 189 190 189 188 189 191 193 197 200 202 204 207 209 211 214 216 220 224 227 232 237 241 244 248 253 256 258 259 260 265 270 275 277 279 279 280 281 282 282 281 279 278 277 276 275 274 273 273 273 274 273 269 265 263 263 264 265 267 271
224 230 236 237 236 236 232 229 236 239 230 221 218 213 210 208 202 192 184 181 179 178 177 178 178 178 180 182 183 184 186 187 188 190 194 198 201 204 206 208 212 217 221 224 228 232 235 239 244 246 249 252 254 256 258 260 264 269 274 276 277 278 279 281 282 282 281 279 278 278 277 276 275 274 272 272 273 273 271 268 265 264 264 265 266 269 273
223 228 232 229 228 230 228 224 224 222 214 205 201 196 190 184 178 170 164 164 167 168 168 171 172 174 177 180 181 183 187 189 191 193 197 200 203 206 209 213 219 224 228 231 235 238 241 245 247 248 249 252 254 256 261 265 268 271 273 275 277 278 280 282 282 280 279 279 278 278 276 276 275 274 273 273 272 272 271 270 267 265 265 267 269 272 275
223 225 225 221 220 222 220 215 211 210 204 193 188 186 181 175 171 169 166 164 165 164 165 169 172 175 179 182 184 187 191 194 196 199 201 205 208 211 216 222 228 231 234 237 240 241 244 246 248 248 250 253 257 260 264 267 269 271 272 275 277 278 279 280 279 278 278 278 277 276 276 275 274 273 273 273 273 271 271 269 267 266 267 269 273 275 275
227 228 224 220 219 218 212 207 203 201 195 186 181 180 178 175 173 173 172 171 170 170 171 174 176 178 181 185 188 191 195 199 203 205 208 212 215 220 225 230 234 236 238 240 242 244 245 248 249 251 253 257 260 263 266 268 269 271 273 275 277 278 277 277 276 276 277 277 276 275 276 275 273 270 271 272 273 273 271 269 268 267 268 271 274 274 274
229 230 225 219 215 212 209 207 204 201 194 187 181 178 177 179 180 179 178 178 179 180 183 185 185 186 189 191 194 197 202 207 211 213 214 217 221 226 231 234 238 241 243 245 247 248 251 252 253 255 257 259 261 264 266 268 270 271 273 275 275 275 275 275 275 275 276 277 276 275 275 273 271 270 271 271 272 273 273 271 269 269 269 270 271 271 273
226 227 224 215 208 207 210 210 211 210 203 193 189 189 188 186 186 185 185 187 190 192 195 196 197 198 199 200 203 207 211 214 217 219 222 225 229 233 237 241 244 247 249 251 252 254 255 256 256 258 261 262 263 265 266 268 269 269 271 272 273 274 274 275 275 275 276 277 276 275 274 272 271 271 272 271 270 271 272 271 270 269 269 270 271 271 273
222 221 216 207 203 206 210 212 214 214 209 202 200 202 201 198 196 195 194 196 199 202 205 206 206 208 210 212 214 216 219 222 225 227 229 232 236 240 244 247 249 251 253 256 257 257 258 258 259 261 262 263 263 264 265 266 266 267 268 270 272 273 274 274 275 276 275 275 274 274 273 273 272 271 270 270 270 270 269 268 268 268 270 271 272 273 273
221 221 214 209 208 211 213 214 215 214 211 209 206 205 205 205 204 203 203 205 208 211 215 217 218 219 221 223 223 224 226 227 229 231 232 235 240 244 247 250 252 254 256 258 259 260 261 260 260 262 263 263 263 264 264 264 265 265 265 267 270 272 272 274 275 275 274 273 273 273 273 272 272 271 269 269 269 268 267 266 267 268 269 271 272 273 273
216 220 216 212 213 216 217 217 216 214 213 213 213 211 212 213 213 213 215 218 220 222 224 227 227 226 228 230 230 231 232 232 233 236 239 243 246 248 250 254 258 260 260 260 260 261 262 262 262 263 264 263 263 263 263 263 264 264 264 266 268 271 272 273 274 274 274 273 273 272 272 273 272 271 269 268 267 267 267 268 269 269 269 270 271 273 273
209 213 213 210 211 214 216 216 218 218 218 220 222 223 222 222 223 226 228 230 230 229 230 231 231 230 233 236 236 236 237 237 239 243 246 248 250 253 257 261 263 263 262 262 262 263 264 263 263 263 263 263 262 262 263 263 264 264 264 265 268 270 271 272 274 274 273 273 272 272 272 272 271 271 270 268 267 268 269 270 270 270 270 271 271 272 274
198 202 205 205 206 208 210 214 218 221 222 224 225 227 227 227 228 231 232 233 234 235 235 235 234 235 237 240 240 240 241 243 245 249 252 253 255 258 262 263 263 263 263 264 265 265 264 263 262 261 262 263 263 263 264 264 264 265 264 264 267 269 270 271 273 273 272 272 272 271 271 271 271 270 269 268 267 268 269 270 270 270 271 271 271 273 276
189 193 198 201 203 206 209 213 216 218 221 223 224 227 229 230 230 231 233 235 238 241 243 243 242 244 245 245 246 247 248 249 252 254 256 257 259 260 262 264 264 264 264 265 265 265 264 263 263 263 263 264 264 263 263 263 263 264 264 264 266 269 270 271 272 272 272 271 271 270 270 271 271 271 269 269 268 268 269 270 270 270 271 272 273 276 278
181 184 190 196 201 205 209 211 212 214 217 220 222 225 229 231 231 231 234 237 240 244 246 246 247 249 250 249 250 251 252 252 254 256 257 258 260 262 264 264 264 265 265 265 266 266 266 266 266 265 265 265 264 263 263 262 262 262 263 264 267 269 270 271 271 271 271 270 270 270 270 271 271 271 270 270 269 269 269 270 270 271 273 274 276 277 278
176 179 186 192 196 201 207 210 213 215 218 222 224 227 230 233 232 231 232 236 240 244 246 246 248 250 250 250 251 252 252 252 253 255 257 260 262 264 265 265 265 265 266 267 268 268 267 267 267 266 266 265 264 263 263 262 262 262 263 265 268 269 269 269 269 270 270 270 270 271 271 271 271 271 270 270 270 270 270 270 271 272 274 276 277 279 279
174 178 183 188 193 198 203 206 211 214 217 220 223 224 226 230 230 228 229 233 237 241 243 243 245 247 248 249 250 251 252 253 254 257 261 263 265 266 266 266 266 267 267 267 268 268 268 268 267 266 265 265 264 264 264 263 263 263 264 265 267 268 267 267 268 268 269 270 271 271 271 271 271 271 271 270 270 270 271 272 273 274 276 277 279 280 279
166 169 172 178 188 196 198 201 207 212 214 216 218 218 219 222 226 228 230 233 237 240 241 240 241 243 246 249 252 254 256 258 260 262 265 267 267 267 267 267 268 268 268 268 268 268 269 268 266 265 264 263 263 263 263 262 262 262 263 265 266 267 267 266 267 269 270 270 270 271 271 271 272 271 270 270 270 271 272 273 274 276 277 278 278 278 277
162 169 175 182 192 200 203 204 208 211 213 216 220 222 222 225 229 233 235 237 240 243 241 239 241 245 249 254 257 259 261 263 264 266 267 268 269 269 269 270 270 270 269 268 267 267 267 267 266 264 263 262 262 262 262 262 261 262 262 263 264 264 265 266 268 269 270 270 270 271 271 271 271 271 270 270 271 272 273 274 274 275 275 276 276 277 277
165 176 190 200 208 213 213 212 212 212 214 218 223 226 229 231 234 236 237 239 242 243 241 241 245 250 255 259 261 262 264 264 265 267 268 269 269 270 270 271 272 272 270 270 270 269 268 266 264 263 263 263 262 262 262 262 262 262 261 261 261 262 264 266 267 269 270 270 271 270 270 270 270 270 270 271 272 273 274 275 275 274 275 276 277 278 278
187 187 192 197 204 210 211 212 214 214 214 215 218 223 228 229 230 230 231 233 237 239 240 244 250 255 260 263 265 266 267 267 268 269 269 270 271 271 271 272 273 273 273 272 272 270 268 265 263 263 263 263 263 262 262 263 263 261 260 260 261 262 263 265 266 268 270 271 270 270 269 270 271 271 271 273 275 276 276 275 274 274 277 278 279 278 276
191 190 188 191 197 202 206 209 212 213 213 212 212 216 221 223 224 225 227 232 238 244 248 252 256 261 265 269 269 270 270 270 271 272 273 273 273 272 273 274 274 273 272 272 271 270 269 266 264 264 263 263 262 262 262 262 262 261 260 261 261 262 263 264 266 267 268 269 269 268 269 270 271 272 273 276 278 277 276 274 274 275 277 278 278 276 275
193 195 195 195 196 198 201 205 207 209 212 213 214 217 223 226 230 234 239 243 249 253 256 259 261 263 267 270 271 273 275 276 276 277 277 276 275 274 274 276 276 274 271 270 270 269 269 267 265 264 263 263 262 262 260 260 261 261 261 261 262 263 263 263 264 265 266 266 266 266 268 270 271 273 275 277 278 277 275 274 274 275 276 276 276 276 276
199 202 205 210 211 207 207 208 208 208 213 216 220 227 234 237 241 245 250 254 259 262 265 267 268 268 269 271 272 274 278 280 280 280 278 276 275 274 273 275 278 277 274 271 269 268 267 267 266 265 264 262 262 261 260 260 262 263 262 261 262 263 263 263 263 263 263 263 264 266 268 270 272 274 275 276 276 276 275 274 274 275 276 277 277 277 277
207 211 215 225 232 230 227 226 224 221 224 229 235 243 249 251 253 255 257 261 265 269 271 272 272 271 272 272 272 274 277 279 280 280 278 276 275 274 273 274 277 278 276 273 271 268 267 266 266 265 264 262 261 260 261 263 265 265 263 262 263 264 264 263 263 262 262 263 265 268 270 271 272 273 273 273 274 274 274 275 275 276 277 278 278 278 278
212 220 226 235 243 245 249 254 254 252 252 256 259 263 263 262 264 265 266 269 273 275 276 276 275 274 274 274 274 276 279 280 280 280 278 276 275 275 275 276 277 277 275 274 272 270 270 269 266 264 263 261 259 259 261 264 265 265 263 262 263 263 264 263 263 263 264 265 267 269 270 270 271 271 271 271 273 274 275 277 278 279 279 280 279 278 277
221 234 245 259 272 277 280 282 281 279 276 273 273 274 273 271 273 275 274 274 276 277 279 280 280 280 281 281 280 280 280 281 282 281 278 276 276 278 278 278 277 276 275 275 274 273 273 272 269 265 261 258 257 260 264 266 266 265 264 263 262 263 263 263 264 264 265 267 268 268 268 268 269 269 270 272 274 276 277 278 280 280 281 280 278 276 274
236 249 260 273 286 292 291 289 285 279 272 267 269 275 276 273 273 275 275 275 276 277 279 281 284 285 286 286 286 284 282 281 283 283 281 279 279 279 278 278 276 274 274 275 275 274 273 272 269 267 264 262 262 266 269 269 267 266 265 264 263 264 264 264 265 265 266 266 266 266 266 266 268 269 270 272 274 276 276 277 279 279 279 278 277 275 274
250 258 266 275 284 288 288 283 278 273 269 266 268 273 276 274 274 275 276 277 277 277 278 280 282 284 286 286 286 285 283 281 282 283 282 281 280 279 279 278 276 274 273 274 275 275 273 270 268 267 266 265 267 270 271 269 268 267 266 265 265 265 265 265 265 265 264 264 264 265 266 267 268 269 270 272 274 274 274 275 277 276 276 275 276 276 276
259 261 264 269 272 275 275 273 272 272 272 271 271 274 276 278 277 277 278 278 277 275 274 276 278 280 283 283 283 283 282 281 279 280 281 281 280 279 279 278 276 275 275 276 276 276 273 269 266 266 265 265 268 270 270 268 267 267 267 266 266 266 265 264 264 263 263 263 264 265 266 267 268 269 269 270 272 273 273 274 275 276 275 275 275 277 278
264 264 266 269 270 270 269 268 269 272 274 274 274 277 279 281 281 281 282 282 280 277 276 277 278 279 280 280 279 280 280 280 278 279 281 282 281 279 279 277 276 276 277 276 275 275 274 270 267 266 265 265 267 269 268 267 268 268 267 266 266 265 264 263 262 262 263 263 263 264 265 266 267 268 268 269 272 275 276 277 278 279 278 277 277 278 280
268 268 269 273 276 276 272 268 268 271 274 275 277 280 281 280 280 281 284 284 284 282 282 282 282 281 281 280 278 278 280 281 279 279 280 281 280 279 279 278 277 277 277 276 275 274 272 270 267 266 265 265 267 268 268 268 268 268 267 266 265 264 263 263 262 263 263 263 262 263 264 265 266 268 270 272 275 277 278 278 280 280 279 279 279 280 281
270 273 276 278 281 281 279 276 274 274 275 276 278 280 280 279 280 281 283 284 284 284 284 285 286 286 286 286 284 283 282 282 281 280 280 280 279 278 277 277 277 276 276 276 275 273 271 268 267 265 265 265 266 267 268 269 269 268 267 266 265 264 263 263 263 263 263 263 263 264 265 267 269 271 272 274 276 278 278 279 280 280 278 278 279 280 280
276 279 281 283 283 282 282 282 280 278 277 279 280 280 280 280 281 281 281 283 284 284 284 285 286 287 288 289 289 288 287 286 284 283 281 281 280 278 277 277 277 277 276 275 273 271 270 268 267 266 266 267 267 267 268 268 267 267 266 265 264 263 263 262 262 263 263 264 265 266 267 269 270 272 273 275 277 279 279 279 280 279 279 278 279 279 280
283 284 284 285 285 284 283 284 284 283 282 282 282 281 281 282 282 281 282 284 286 286 285 285 286 287 288 289 289 290 290 290 289 287 285 283 282 280 278 277 277 276 275 274 272 271 270 268 267 267 267 267 267 267 267 266 266 265 265 264 264 264 264 264 263 264 264 265 266 267 269 270 271 272 273 275 277 278 278 279 280 280 279 279 280 280 280